Theta_e
291 294 294 292 293 294 292 294 290 293 294 299 301 303 305 307 307 307 308 310 311 311 312 314 316 323 324 325 327 326 324 323 321 323 324 324 323 323 323 324 324 324 322 321
288 292 293 291 293 294 295 295 294 295 295 302 304 305 303 304 305 307 308 309 310 312 313 313 315 315 321 324 325 327 325 324 323 323 322 323 323 323 322 322 322 323 322 321
284 290 290 286 291 292 294 296 295 291 297 302 301 302 303 304 307 307 307 308 310 310 312 314 316 318 315 315 323 325 325 325 325 324 322 322 323 323 322 321 321 321 321 321
285 287 279 291 297 296 294 296 298 298 300 301 301 303 304 306 307 306 307 308 310 312 313 316 317 315 316 318 315 318 324 324 325 325 323 323 323 322 321 321 320 320 320 320
284 283 287 290 293 292 291 292 298 297 299 301 302 302 302 306 308 308 308 309 311 313 312 311 308 308 311 314 317 318 314 323 324 324 323 323 322 322 322 321 320 320 320 319
286 281 279 289 295 300 298 288 300 300 299 299 300 295 299 305 306 308 309 310 309 310 307 303 300 302 305 310 311 309 312 319 321 324 323 322 322 322 322 322 320 319 317 310
284 283 287 294 298 301 287 290 300 300 301 300 298 300 303 306 307 309 309 307 307 306 302 297 297 298 298 300 298 302 308 315 314 317 322 322 321 321 321 320 307 296 291 290
285 282 280 298 297 291 298 301 301 301 301 301 302 302 304 305 307 306 304 304 303 301 298 294 293 294 294 293 296 299 301 302 302 302 304 313 317 308 305 300 293 289 287 285
288 288 297 301 300 302 303 300 300 300 301 301 300 300 302 302 305 303 301 299 298 297 294 292 292 291 290 291 294 294 292 290 290 291 293 297 299 297 295 294 291 287 286 284
292 294 297 299 301 302 301 301 301 300 300 299 298 299 299 301 298 297 297 294 293 292 289 288 289 288 288 288 292 290 288 287 287 286 285 285 290 290 290 288 287 286 284 282
291 294 296 297 298 299 299 299 298 299 298 296 296 294 294 295 292 291 290 289 288 285 285 284 285 285 286 287 289 288 287 286 285 284 283 282 282 283 284 285 287 284 282 282
289 295 295 294 296 297 296 295 296 296 294 294 292 290 289 287 285 285 284 283 282 282 281 281 281 282 283 286 286 286 284 283 283 283 282 281 281 280 283 283 284 284 283 282
291 294 296 296 293 293 293 293 293 292 290 288 287 285 284 282 280 280 279 279 278 278 279 280 280 280 282 284 284 282 282 281 281 281 280 280 280 279 278 281 283 283 283 283
292 293 294 291 288 290 290 291 291 288 286 284 283 281 280 278 278 277 277 278 278 278 278 279 280 280 282 282 283 282 282 281 281 280 279 279 279 278 278 277 276 277 281 281
288 291 290 290 290 288 289 288 287 283 282 281 281 279 278 276 275 276 277 278 278 277 277 277 278 278 283 283 282 281 281 281 281 281 280 280 280 279 278 277 276 276 278 278
287 289 288 287 285 284 283 282 281 279 279 278 277 277 277 277 276 275 276 276 275 274 276 276 276 279 280 281 282 281 280 280 280 279 278 277 277 276 275 275 275 275 276 276
282 281 282 283 282 281 279 280 279 277 277 276 276 277 276 276 275 275 275 274 274 274 275 275 276 277 279 280 279 278 278 278 278 279 278 276 275 274 274 273 272 272 272 273
283 282 282 282 281 280 278 278 277 277 275 276 275 273 272 271 271 272 272 273 272 271 273 274 276 276 277 278 278 278 277 276 276 275 276 275 275 275 275 274 273 272 272 272
281 280 280 280 279 278 277 276 276 276 275 274 273 272 272 271 271 270 271 270 269 268 269 273 275 275 275 277 277 277 276 275 275 274 274 273 273 273 273 272 271 271 271 270
278 278 277 276 277 276 274 275 274 274 274 273 272 271 269 270 272 271 270 268 269 270 271 271 273 273 274 274 275 275 274 274 273 272 272 272 272 271 271 271 271 270 269 269
275 275 275 274 274 274 274 274 273 272 272 272 271 269 269 269 268 269 270 267 269 270 270 270 270 272 272 272 272 272 272 271 271 271 270 270 269 269 269 269 268 268 268 268
275 274 274 273 273 273 273 273 273 272 272 271 271 272 271 270 269 267 267 268 269 268 269 269 269 268 270 271 271 270 270 270 269 269 269 268 268 267 267 267 266 266 266 266
275 275 274 273 272 272 272 272 272 272 271 271 271 271 270 270 269 267 265 268 267 267 268 268 267 268 269 270 269 269 269 268 268 267 267 267 267 266 265 265 265 265 263 264
275 275 275 275 275 274 272 272 272 272 271 271 270 270 272 270 269 269 268 268 267 266 266 267 267 268 267 269 268 267 266 267 267 267 267 265 266 266 265 263 264 264 263 262
276 275 275 274 273 273 273 273 273 272 272 271 271 271 270 270 268 268 268 268 267 268 267 265 266 267 268 267 267 267 267 265 264 266 266 265 265 264 264 263 262 260 261 261
275 274 274 275 275 275 275 275 273 273 272 270 270 270 270 270 270 270 269 268 268 267 268 267 266 266 267 267 267 266 266 265 264 264 264 264 264 264 262 261 261 261 260 260
275 275 274 273 273 273 273 273 272 271 271 271 269 270 270 270 269 269 267 269 269 268 268 268 268 265 265 266 266 266 266 266 261 262 263 263 263 262 261 261 260 259 259 259
Wind_Speed
13 10 11 5 12 11 13 14 9 9 14 5 7 9 14 6 6 10 13 15 15 15 16 17 13 8 11 11 13 15 16 14 17 15 14 15 16 16 16 16 16 18 18 19
14 10 10 17 11 13 12 19 9 7 12 14 18 4 8 9 9 13 13 13 14 14 15 16 17 13 8 11 12 14 16 19 15 15 16 17 16 16 16 17 18 17 19 19
12 8 13 10 11 11 10 9 9 9 10 4 5 8 8 7 9 11 11 11 11 12 13 15 17 18 15 10 8 13 16 17 16 16 17 18 17 17 19 19 17 19 19 18
8 8 7 10 10 4 8 14 15 15 6 3 3 6 9 9 14 11 11 9 8 11 12 13 17 19 19 20 15 9 14 15 16 16 18 17 17 19 19 16 17 17 18 17
8 7 12 15 6 3 7 8 11 15 3 8 8 5 15 15 12 8 9 10 13 15 15 15 17 18 18 17 17 17 15 12 15 15 15 15 16 18 16 14 15 16 14 15
5 7 6 7 15 3 5 7 11 10 9 7 5 5 9 13 11 8 11 15 13 14 13 13 14 15 15 15 17 19 22 20 16 14 15 16 16 14 12 11 13 10 10 1
10 7 5 6 11 8 11 5 8 8 10 10 8 8 11 13 10 12 13 15 14 12 12 12 13 13 13 15 16 18 18 18 18 17 13 14 12 10 9 9 6 7 9 8
8 6 13 6 7 9 11 10 9 10 11 10 10 10 11 12 14 16 15 16 16 12 11 13 14 13 12 13 15 15 14 15 16 17 14 9 3 7 8 10 9 8 7 8
9 7 8 7 13 8 8 8 11 12 13 13 11 10 12 12 15 14 16 14 14 12 13 12 14 14 13 13 12 11 13 14 14 15 15 13 10 7 6 6 7 7 6 8
2 6 6 11 15 11 11 12 14 13 11 11 10 12 13 12 14 14 14 14 14 14 13 13 13 14 13 14 12 9 10 11 11 13 14 15 9 8 6 6 6 5 6 8
6 11 5 13 13 8 15 14 13 12 12 12 12 13 15 14 14 14 14 14 14 14 13 15 14 15 15 13 11 9 9 9 10 10 12 12 14 11 8 8 7 8 7 8
2 8 10 11 9 14 14 12 11 11 10 11 13 12 12 11 11 11 12 12 12 13 13 14 14 14 14 14 11 8 9 9 9 9 9 9 9 13 28 26 28 26 20 16
6 10 9 14 15 14 11 12 13 14 14 11 12 11 11 10 11 12 12 13 13 13 13 11 12 13 13 12 11 13 10 10 9 8 10 9 9 9 13 21 33 33 30 26
14 14 7 16 8 11 11 11 11 12 12 11 11 11 11 10 11 12 13 12 13 13 13 13 12 13 12 13 11 13 12 15 9 8 9 9 10 7 12 9 14 15 22 20
13 9 7 7 9 13 13 12 10 11 11 11 11 11 11 12 13 13 12 11 12 13 14 15 15 16 12 10 14 14 11 9 9 9 8 10 10 8 9 10 12 11 10 14
12 12 11 11 11 12 12 11 10 9 9 10 11 12 12 13 13 13 14 13 14 15 14 15 15 14 14 14 12 11 13 16 12 9 9 9 9 9 9 11 11 10 9 9
9 10 9 9 8 9 10 8 9 9 9 10 10 9 10 10 10 12 12 13 14 14 13 15 13 13 12 11 13 10 9 10 13 10 9 9 9 10 9 11 11 10 11 12
9 8 9 8 8 8 10 10 10 11 11 11 10 10 11 11 11 12 12 11 11 14 14 14 13 13 14 14 12 9 9 10 10 11 10 9 9 9 9 10 10 9 10 11
11 11 11 12 11 11 11 11 11 11 10 9 10 10 10 11 11 11 11 12 13 14 14 13 15 14 14 14 11 9 9 10 9 9 9 11 10 9 9 9 9 9 8 8
12 12 13 13 13 12 11 10 11 11 10 10 10 10 11 11 8 9 11 14 12 9 10 14 12 12 12 13 12 9 10 10 9 9 8 9 8 8 9 11 9 8 8 7
11 11 10 10 11 10 10 9 9 11 10 9 10 10 10 9 12 11 9 9 11 11 11 12 11 9 9 9 10 10 10 9 9 9 8 8 8 8 8 8 7 7 7 7
9 9 9 10 10 11 11 10 11 10 10 11 10 6 6 8 9 11 12 10 8 11 9 8 9 12 10 11 8 9 10 10 9 8 8 8 8 8 8 7 7 6 6 5
9 10 10 9 10 11 11 10 9 9 9 9 8 7 8 7 7 7 7 10 8 10 8 8 10 12 9 8 8 8 8 8 7 7 6 6 6 6 5 6 5 6 5 5
9 9 9 8 8 9 10 9 9 9 7 8 9 9 7 6 6 7 7 6 6 8 6 6 7 10 9 6 6 6 8 8 6 6 5 6 5 4 4 4 5 5 3 3
7 7 7 7 7 6 8 7 7 7 7 8 8 8 8 7 5 5 5 4 6 6 6 7 9 6 6 5 6 6 5 5 4 5 5 4 4 3 4 4 3 2 2 3
6 5 6 7 5 3 3 4 5 4 5 5 5 5 5 4 4 4 4 3 4 5 5 4 5 7 6 5 5 5 5 5 5 5 4 3 4 3 3 3 3 3 3 3
5 3 4 5 5 6 6 6 5 5 5 4 5 4 4 4 3 4 4 4 4 4 4 4 4 4 3 4 5 5 5 4 3 2 4 3 3 3 3 3 3 3 2 2
Wind_Direction
308 323 305 174 301 243 211 235 220 224 224 290 296 266 258 39 32 27 17 13 10 0 349 352 357 195 196 200 193 197 210 218 215 209 214 214 213 211 211 210 208 211 209 211
286 308 291 283 227 260 189 221 253 259 258 230 231 224 81 39 23 37 20 6 7 4 354 351 341 347 304 198 202 195 208 218 216 210 210 216 216 213 212 215 214 213 212 211
269 276 291 282 267 268 276 277 282 285 287 85 348 345 29 21 66 46 20 7 356 3 3 355 344 337 332 338 273 203 207 218 218 214 214 216 215 214 217 214 211 217 218 217
271 281 251 251 241 250 249 240 251 243 265 258 354 26 357 12 55 39 3 358 359 20 8 1 1 356 344 343 324 304 225 217 215 218 221 219 214 218 219 215 215 215 219 219
235 232 266 284 165 274 251 258 236 247 158 53 46 335 36 30 30 35 357 11 35 35 24 16 4 346 338 334 330 324 316 238 222 218 225 225 222 221 221 217 217 219 218 220
254 237 248 257 270 44 318 237 51 75 62 43 26 6 35 357 352 9 31 50 32 33 25 17 360 348 341 347 357 357 344 335 313 212 217 221 221 218 215 216 218 212 213 272
232 250 271 288 29 339 221 95 72 38 44 39 32 13 335 343 338 42 35 50 35 29 25 11 1 358 3 355 353 335 330 334 352 336 221 219 214 206 193 196 116 98 90 47
229 246 246 260 150 254 77 24 65 27 39 33 14 357 352 339 6 36 25 24 22 21 21 9 2 359 6 4 341 343 350 356 357 356 352 351 151 66 69 105 112 103 93 81
194 206 252 108 104 95 76 82 62 46 30 17 13 1 9 358 24 21 30 25 15 8 7 10 3 4 357 347 346 1 14 16 10 6 360 357 19 68 80 95 126 130 118 114
342 266 348 58 43 68 66 57 56 47 35 30 11 11 14 15 23 18 22 15 16 8 7 11 0 3 354 342 343 8 41 34 27 25 20 9 12 16 47 69 85 80 94 102
182 269 18 51 54 22 59 50 48 39 35 27 18 17 5 28 25 15 17 17 16 11 10 3 1 2 354 350 348 24 33 39 51 39 34 34 36 25 37 29 78 98 89 93
52 41 95 103 61 31 53 41 31 27 35 33 33 26 17 39 26 24 26 21 21 19 13 6 2 3 359 1 7 29 48 42 36 54 40 49 38 58 53 65 67 77 73 95
35 357 53 97 65 36 34 33 29 44 40 36 39 31 38 43 32 41 38 33 30 27 21 13 6 8 5 8 23 42 40 48 63 46 64 41 56 53 64 67 71 70 74 71
15 352 66 44 26 27 29 30 54 57 54 44 46 47 49 50 47 45 42 39 41 35 24 16 12 20 7 20 33 48 52 49 55 59 56 73 61 45 74 56 73 75 62 73
5 4 55 31 39 31 25 17 52 47 42 48 51 57 61 63 61 55 49 47 47 42 35 24 21 15 8 22 39 44 50 52 61 64 64 68 75 69 71 74 69 72 72 64
334 43 32 44 54 46 35 32 53 53 59 61 67 67 70 72 69 62 51 44 47 40 30 35 22 15 16 17 33 44 49 46 53 55 58 58 64 70 71 69 61 56 60 64
4 14 11 19 49 59 60 56 60 71 73 71 69 77 83 78 67 61 56 46 44 41 30 37 26 9 25 28 35 39 44 40 42 57 56 55 58 59 61 63 66 65 61 58
38 46 32 35 46 75 73 69 70 74 76 73 71 67 64 61 55 53 53 47 46 40 27 30 26 26 27 33 39 47 50 49 47 48 51 54 55 58 60 66 68 70 68 60
43 52 53 54 62 74 76 74 73 76 78 82 80 76 76 72 65 59 53 52 45 38 17 10 29 30 29 33 40 47 54 53 54 58 59 58 58 60 64 68 68 66 68 66
58 62 64 66 66 75 79 72 72 68 64 67 67 63 53 41 66 76 65 55 45 39 34 19 22 33 27 27 32 44 44 48 57 59 50 54 55 57 60 57 60 62 63 66
74 72 73 76 80 77 75 76 80 79 77 76 78 75 71 62 49 29 58 56 34 31 35 35 32 24 30 30 38 38 39 43 43 46 48 52 55 53 55 58 58 57 54 53
85 85 83 82 80 76 70 72 69 67 63 57 50 67 92 95 92 66 42 45 36 30 37 34 24 13 20 35 40 42 42 38 40 43 42 43 45 47 48 46 46 49 47 49
88 89 88 85 88 88 82 75 70 67 63 55 59 75 74 63 48 54 54 42 46 25 44 30 12 13 28 35 34 39 48 51 48 42 47 45 43 55 46 28 47 52 40 17
99 100 102 108 112 104 98 102 102 101 97 78 56 40 38 90 74 73 65 39 85 91 50 30 17 18 34 33 50 56 33 20 36 39 50 43 40 52 64 34 36 32 27 26
100 110 117 118 107 105 119 130 119 106 89 74 66 70 71 60 70 56 51 77 33 40 76 24 9 36 40 46 32 25 60 63 18 18 27 41 29 49 40 34 51 24 355 36
83 78 70 59 70 88 81 74 83 76 106 101 80 71 64 56 61 74 91 64 58 49 45 77 50 14 20 23 30 22 21 66 23 8 350 30 8 35 53 29 4 16 29 38
112 119 125 96 60 39 30 34 66 76 64 74 80 68 75 89 72 67 54 33 48 24 33 32 57 77 358 353 21 10 11 32 68 9 330 7 4 15 42 26 12 359 342 357